This is the latest recevied weather packets stored in our database for station/object NC4J. If no packets are shown the sender has not sent any weather packets the latest 10 day(s).
| Time | Temp. | Humidity | Pressure | Rain* | Wind** | Luminosity | Snow |
|---|---|---|---|---|---|---|---|
| 1777924783 | 21.67° C | 29% | 1015.5 hPa | 0 mm | - | 386 W/m² | - |
| 1777924479 | 21.67° C | 29% | 1015.3 hPa | 0 mm | - | 165 W/m² | - |
| 1777924176 | 21.67° C | 34% | 1015.4 hPa | 0 mm | - | 143 W/m² | - |
| 1777923872 | 21.67° C | 30% | 1015.3 hPa | 0 mm | - | 91 W/m² | - |
| 1777923568 | 21.67° C | 29% | 1015.5 hPa | 0 mm | - | 88 W/m² | - |
| 1777923265 | 21.67° C | 28% | 1015.5 hPa | 0 mm | - | 85 W/m² | - |
| 1777922964 | 21.67° C | 30% | 1015.5 hPa | 0 mm | - | 113 W/m² | - |
| 1777922661 | 21.67° C | 32% | 1015.8 hPa | 0 mm | - | 91 W/m² | - |
| 1777922360 | 21.67° C | 32% | 1016 hPa | 0 mm | - | 118 W/m² | - |
| 1777922058 | 21.11° C | 31% | 1016 hPa | 0 mm | - | 103 W/m² | - |
| 1777921753 | 21.11° C | 31% | 1016.1 hPa | 0 mm | - | 95 W/m² | - |
| 1777921448 | 21.11° C | 33% | 1016.2 hPa | 0 mm | - | 71 W/m² | - |
| 1777921145 | 21.67° C | 29% | 1015.8 hPa | 0 mm | - | 67 W/m² | - |
| 1777920843 | 21.67° C | 28% | 1016.3 hPa | 0 mm | - | 72 W/m² | - |
| 1777920538 | 22.22° C | 27% | 1016 hPa | 0 mm | - | 109 W/m² | - |
| 1777920234 | 22.22° C | 28% | 1016.2 hPa | 0 mm | - | 78 W/m² | - |
| 1777919930 | 22.22° C | 31% | 1016.3 hPa | 0 mm | - | 339 W/m² | - |
| 1777919628 | 22.22° C | 31% | 1016.3 hPa | 0 mm | - | 308 W/m² | - |
| 1777919325 | 21.67° C | 30% | 1016.3 hPa | 0 mm | - | 661 W/m² | - |
| 1777919023 | 22.22° C | 32% | 1016.3 hPa | 0 mm | - | 709 W/m² | - |
| 1777918719 | 22.22° C | 30% | 1016.5 hPa | 0 mm | - | 101 W/m² | - |
| 1777918417 | 21.67° C | 32% | 1016.7 hPa | 0 mm | - | 100 W/m² | - |
| 1777918116 | 21.67° C | 34% | 1016.7 hPa | 0 mm | - | 114 W/m² | - |
| 1777917814 | 21.67° C | 33% | 1016.8 hPa | 0 mm | - | 81 W/m² | - |
| 1777917512 | 21.11° C | 32% | 1016.8 hPa | 0 mm | - | 93 W/m² | - |
* Rain latest hour (hover to see other rain measurements)
** Current wind speed in m/s (hover to see current wind gust speed)